Tracking 18823 objects as of 24-October-2017
HD Live streaming from Space Station
objects crossing your sky now

BEESAT

Track BEESAT now!
10-day predictions
BEESAT is classified as:


NORAD ID: 35933
Int'l Code: 2009-051C
Perigee: 709.0 km
Apogee: 716.3 km
Inclination: 98.5 °
Period: 98.9 minutes
Semi major axis: 7083 km
RCS: 0.033 m2 (small)
Launch date: September 23, 2009
Source: Germany (GER)
Launch site: SRIHARIKOTA (SRI)
Uplink (MHz):
Downlink (MHz): 436.000
Beacon (MHz): 436.000
Mode: 9600/4800bps GMSK
Call sign: DP0BEE
Status: Active


BEESAT is a a cubesat satellite built by student teams to test new attitude control systems.
aabbcc
Your satellite tracking list
Your tracking list is empty





NASA's NSSDC Master Catalog

Two Line Element Set (TLE):
1 35933U 09051C   17296.89273092 +.00000192 +00000-0 +54411-4 0  9994
2 35933 098.5183 079.2371 0005134 220.0045 140.0774 14.56185132429075
Source of the keplerian elements: Caltech